Location: Arcusa
(42.3167°N, 0.0833°W)
Time: 22:33:09
(UTC+00:00)

Cosmos 1437 - Pass Details

Date: 25 January 2020
Orbit: 377 x 382 km, 81.2° (Epoch: 18 February)

Event Time Altitude Azimuth Distance (km) Brightness Sun altitude
Rises 06:06:12 0° 356° (N) 2,255 6.3 -13.8°
Reaches altitude 10° 06:08:15 10° 3° (N) 1,398 5.3 -13.5°
Maximum altitude 06:11:10 44° 78° (ENE) 537 3.8 -13.0°
Drops below altitude 10° 06:14:04 10° 152° (SSE) 1,386 6.0 -12.4°
Sets 06:16:06 0° 159° (SSE) 2,233 7.0 -12.1°
